Vorticity
nan nan nan nan nan nan nan nan nan nan nan nan nan nan nan nan nan nan nan nan nan nan nan nan nan nan nan nan nan nan nan nan nan nan nan nan nan nan nan nan nan nan nan nan nan nan nan nan nan nan nan nan nan nan nan nan nan nan nan nan nan nan nan nan nan nan nan nan nan nan nan nan nan nan nan nan nan nan nan nan nan nan nan nan nan nan
nan 7 6 9 12 11 8 7 8 8 8 7 7 7 8 9 9 9 9 8 8 8 8 8 8 9 6 1 1 4 9 10 9 9 9 9 9 9 9 10 10 11 12 12 12 12 11 11 10 10 10 10 10 10 10 11 11 11 10 10 10 10 10 10 10 10 10 10 10 10 10 10 10 10 10 10 10 9 9 8 8 7 7 7 7 nan
nan 8 6 7 9 10 8 7 9 8 8 7 7 7 8 9 9 9 8 8 9 9 9 8 8 9 7 3 0 3 7 8 9 9 8 8 8 8 9 10 10 11 11 11 12 11 11 10 10 10 10 10 11 11 11 11 11 11 11 11 11 11 11 11 11 11 11 10 10 10 10 10 10 10 10 10 9 9 9 8 8 8 8 8 8 nan
nan 9 7 7 8 9 8 8 9 10 9 8 8 9 9 9 9 8 7 8 8 9 10 9 9 8 9 7 2 1 3 7 7 8 7 7 7 8 9 10 10 11 11 11 11 11 10 10 10 10 11 11 11 11 11 11 11 11 11 11 12 11 11 11 11 11 11 10 10 10 10 10 10 10 10 9 9 9 9 9 9 9 10 10 11 nan
nan 8 8 9 9 8 9 10 10 10 10 10 10 10 10 9 9 9 9 9 9 9 10 10 10 9 9 6 2 -1 2 5 7 7 7 7 7 8 8 9 10 10 10 10 10 10 10 10 10 10 11 11 11 11 11 11 11 11 12 12 12 12 11 11 10 11 11 10 10 10 10 10 10 10 9 9 9 9 9 9 10 10 10 11 11 nan
nan 7 9 10 9 8 9 10 11 11 10 10 10 10 10 10 10 9 9 10 10 10 10 10 10 10 9 4 0 -0 3 5 6 6 6 6 7 7 8 9 9 10 10 10 9 9 9 9 10 10 11 11 11 11 11 11 11 12 12 12 12 11 11 10 10 10 10 10 10 10 10 10 10 9 9 9 9 10 10 10 10 10 10 10 11 nan
nan 8 9 10 10 9 9 9 10 10 10 10 10 10 10 11 11 10 9 9 10 10 10 10 10 11 11 7 4 5 7 7 7 6 6 7 8 8 8 9 9 10 9 9 8 8 8 9 9 10 10 10 10 10 11 11 11 12 12 11 11 11 10 10 10 10 10 10 10 10 10 10 10 9 9 10 10 10 10 10 10 10 10 10 10 nan
nan 8 9 10 11 11 10 9 9 10 10 10 9 9 10 11 11 10 10 10 10 10 10 10 11 12 13 12 12 12 11 10 10 8 7 8 9 9 8 8 9 9 8 8 8 8 8 9 9 9 9 9 9 10 10 11 11 11 11 11 10 10 9 9 9 10 10 10 10 10 10 9 10 10 10 10 10 10 10 10 10 10 10 10 10 nan
nan 9 9 10 10 10 9 8 8 9 11 11 11 10 10 10 11 10 10 10 10 10 9 8 9 11 12 14 15 14 10 7 7 6 7 8 6 4 5 7 8 8 7 7 7 8 8 9 9 9 8 8 8 9 10 11 11 11 11 10 10 9 9 9 9 10 10 10 10 10 10 10 10 10 10 10 10 10 10 10 10 10 10 10 10 nan
nan 10 10 10 10 10 9 7 7 7 10 12 11 11 9 8 9 9 10 10 10 10 9 7 7 9 12 14 14 13 9 4 2 2 6 7 4 4 7 9 8 5 5 7 8 8 8 9 8 8 8 7 8 8 10 11 11 11 10 10 9 9 9 9 9 10 10 10 10 10 10 10 10 10 10 10 10 10 10 11 11 11 10 10 9 nan
nan 10 10 9 10 10 9 8 8 8 10 11 10 9 8 8 7 7 8 10 9 10 10 9 9 9 10 11 12 11 9 7 6 6 7 7 7 10 12 12 10 7 8 9 9 9 8 8 8 8 7 7 8 9 10 11 10 10 10 9 9 9 9 9 9 9 10 10 10 10 10 10 10 10 10 10 10 10 11 11 11 10 10 10 9 nan
nan 9 10 9 9 9 10 11 11 10 10 9 9 8 8 10 9 7 6 7 7 8 10 12 11 11 10 10 9 9 8 8 9 11 11 10 11 13 14 13 12 12 13 13 12 10 8 8 8 8 7 7 7 8 10 11 10 9 10 10 9 9 9 9 9 9 9 9 10 10 10 10 10 10 10 10 10 10 10 10 10 10 10 10 9 nan
nan 10 10 9 9 9 9 11 11 11 10 10 9 8 8 10 9 8 7 7 7 7 9 10 12 13 14 11 8 7 6 6 8 10 11 12 12 12 12 12 13 13 14 14 14 9 4 8 11 10 7 8 8 8 10 10 9 9 10 10 10 9 9 9 9 9 9 9 9 10 10 10 10 10 10 10 10 10 10 10 10 10 10 10 10 nan
nan 10 10 9 9 9 9 10 10 9 9 10 9 8 9 8 8 7 7 8 9 10 10 9 10 12 13 10 9 7 5 5 8 9 10 11 12 11 10 9 10 11 12 12 11 6 5 11 13 9 7 9 9 10 10 9 8 9 10 10 10 9 9 9 9 9 9 9 9 10 10 10 11 11 11 10 10 10 10 10 10 10 10 10 10 nan
nan 9 9 9 9 9 9 9 9 9 9 9 9 9 9 9 8 6 7 8 11 12 12 12 13 13 11 10 10 7 4 5 8 8 9 12 13 13 11 9 9 10 10 10 9 6 10 14 13 9 7 5 4 4 5 7 7 8 10 10 9 9 9 8 8 8 9 9 9 10 10 11 11 11 11 11 10 10 10 10 10 10 10 10 10 nan
nan 10 10 10 9 9 9 9 8 9 10 10 9 9 9 8 8 7 7 10 11 11 10 12 15 15 13 12 11 7 5 6 9 8 9 12 14 14 11 8 8 9 9 9 10 10 13 12 10 8 3 -3 -2 0 5 8 8 9 10 9 9 9 8 8 8 8 8 9 10 10 11 11 11 11 11 11 11 10 11 11 11 11 11 11 11 nan
nan 10 10 10 10 10 10 10 9 9 10 10 10 9 8 7 8 9 9 10 11 11 9 10 11 12 12 12 10 7 6 7 9 9 10 11 12 14 11 7 7 8 9 10 10 10 10 10 9 7 -1 -7 -4 3 8 9 9 10 9 9 9 9 8 8 8 8 9 9 10 10 11 11 11 11 11 11 11 11 11 11 12 12 12 11 11 nan
nan 9 10 10 10 10 10 9 9 9 10 10 10 10 9 9 9 10 10 10 10 10 10 10 9 7 7 7 7 6 7 9 10 10 10 11 12 14 12 9 7 7 8 9 10 10 10 9 4 -1 -10 -9 0 6 9 10 10 9 9 9 9 9 9 8 8 8 9 10 10 11 11 11 11 11 11 11 11 12 12 12 12 12 12 12 11 nan
nan 10 10 10 10 10 10 9 9 9 9 10 10 9 9 9 9 10 10 11 10 10 10 9 9 8 6 5 5 5 7 10 11 11 10 12 12 12 10 9 8 7 7 9 11 12 11 7 -0 -5 -7 0 6 9 10 10 10 9 9 9 9 9 9 8 9 9 10 10 11 11 11 11 11 11 11 11 12 12 13 13 13 13 12 11 12 nan
nan 10 9 10 10 10 10 10 10 10 10 11 11 10 8 9 9 9 10 11 11 11 10 9 8 9 7 6 5 6 7 10 12 12 11 11 12 12 10 8 7 7 8 11 12 11 10 8 5 2 4 6 7 8 9 10 10 10 9 9 9 9 8 9 9 10 11 11 11 11 11 11 11 11 11 12 12 12 12 13 13 12 12 12 14 nan
nan 9 9 9 9 9 10 11 10 10 10 10 9 8 8 9 9 9 10 10 9 9 8 8 8 8 7 5 6 7 9 11 12 12 12 11 12 11 10 7 6 5 8 11 11 9 9 9 9 6 1 0 4 6 8 10 10 10 10 9 9 8 8 9 10 11 11 12 12 11 11 11 11 11 12 12 12 12 12 13 13 12 12 13 17 nan
nan 11 10 9 8 7 10 11 11 11 11 8 5 5 8 10 10 11 11 10 9 8 6 6 7 8 8 8 8 9 11 13 12 10 10 10 10 11 10 6 5 6 10 11 10 8 8 9 8 3 -1 -1 3 7 9 10 10 10 9 8 8 7 8 9 10 11 12 12 11 11 11 11 12 12 12 12 12 12 13 13 12 12 12 15 19 nan
nan 13 12 9 7 6 7 9 10 12 13 10 7 7 10 12 12 12 12 10 9 8 8 8 9 11 11 11 11 11 12 14 12 10 9 9 9 11 9 6 6 7 9 9 8 7 8 9 8 6 4 3 7 8 9 10 10 10 8 7 7 7 8 10 11 12 12 11 11 11 11 12 12 12 12 12 12 12 13 12 12 12 13 18 19 nan
nan 12 10 9 8 6 7 9 11 12 12 11 10 10 12 13 13 13 12 11 10 10 9 10 11 13 14 14 12 12 12 14 12 10 9 9 8 8 7 6 7 9 9 9 8 7 9 11 11 11 9 7 8 8 10 10 9 8 7 6 6 7 9 11 12 12 11 11 11 11 12 12 12 12 13 12 12 12 13 12 11 13 15 18 17 nan
nan 11 12 14 14 11 10 13 15 13 11 10 10 10 11 13 13 12 11 11 10 10 9 9 11 13 14 14 12 12 12 12 12 10 9 8 7 7 7 8 9 9 9 9 9 9 10 11 12 13 12 10 9 9 10 9 8 6 5 6 7 9 11 12 12 11 11 11 11 12 12 12 12 12 12 12 13 13 12 11 11 14 17 18 15 nan
nan 17 17 17 17 13 12 16 19 19 15 12 11 10 10 11 10 9 8 9 8 8 10 11 12 13 13 12 10 11 11 11 11 11 9 8 7 8 9 10 9 7 8 9 9 9 8 9 11 13 12 12 10 11 9 7 6 5 5 7 9 10 12 12 11 11 11 11 12 12 12 12 12 12 12 13 13 12 11 11 12 15 18 17 13 nan
nan 17 16 15 13 12 11 12 15 18 20 18 15 13 10 7 6 7 7 8 8 10 11 11 11 12 12 10 10 10 12 12 11 10 8 7 7 8 10 9 8 8 10 11 10 8 8 11 12 13 12 12 11 8 6 5 4 5 7 10 11 11 12 11 11 11 11 12 12 12 12 12 12 12 12 12 12 12 11 11 13 17 20 18 14 nan
nan 11 10 10 10 10 10 11 11 12 14 17 17 17 13 8 6 8 9 9 9 10 9 8 9 10 10 9 10 12 13 11 10 9 7 4 6 8 9 8 9 9 12 12 12 12 15 17 16 15 13 11 9 6 4 4 6 8 10 11 11 11 11 11 11 11 12 12 12 12 11 11 12 12 12 12 12 11 11 12 15 19 22 21 17 nan
nan 3 4 4 5 5 7 10 12 13 13 13 14 16 18 14 11 11 11 9 9 9 9 9 9 10 9 9 11 13 13 11 10 9 5 4 7 9 9 8 9 10 12 14 16 18 20 18 16 15 12 9 8 7 5 6 11 13 12 10 12 12 10 10 10 11 12 12 11 11 11 11 12 12 12 12 11 11 11 13 18 22 22 17 14 nan
nan -1 -2 -1 1 3 5 7 7 9 11 13 14 15 17 16 13 12 11 9 9 9 8 9 10 9 9 11 13 14 13 13 12 9 4 5 9 10 9 9 9 10 12 14 16 16 16 16 14 11 7 6 7 8 8 10 13 14 12 10 12 9 6 8 10 11 11 11 10 9 10 11 11 12 12 11 11 11 11 14 21 24 20 13 12 nan
nan 3 2 1 3 4 6 6 6 5 5 7 9 11 14 15 13 11 10 10 9 8 8 8 9 9 9 11 12 12 12 13 12 7 5 7 10 9 8 9 9 10 10 11 11 11 12 14 12 8 4 4 7 9 10 11 13 13 12 11 9 3 1 7 11 12 11 10 8 8 9 10 11 11 11 11 10 10 10 14 19 23 19 13 12 nan
nan 7 7 7 8 8 8 8 8 7 5 5 5 6 10 13 13 13 11 9 9 8 8 8 8 9 10 10 8 7 8 8 7 5 8 12 11 10 8 8 8 9 9 9 10 9 9 8 7 4 4 7 10 11 10 11 12 11 10 11 8 0 1 10 13 14 11 8 8 9 9 10 10 11 11 10 10 9 9 12 17 22 19 13 12 nan
nan 8 8 9 11 10 9 9 9 9 9 8 8 7 7 8 11 14 13 10 9 8 8 7 8 9 10 10 8 7 7 5 1 3 10 16 12 10 8 8 8 9 9 11 12 11 7 4 3 3 6 10 11 11 10 11 12 11 11 9 8 3 6 13 14 14 11 9 11 10 10 11 12 11 11 10 9 8 7 10 14 18 19 17 13 nan
nan 8 9 10 10 10 10 10 10 10 10 9 9 9 9 8 9 12 13 12 10 9 8 7 8 8 9 10 10 9 9 6 0 1 9 16 12 9 8 9 9 10 10 11 12 12 10 5 4 5 8 10 11 12 11 11 11 12 10 8 8 7 9 12 13 12 11 12 14 12 13 14 12 11 10 9 8 7 6 8 11 13 18 19 15 nan
nan 7 8 9 9 9 9 10 10 10 10 9 9 9 9 10 10 10 11 12 11 10 8 8 8 7 8 7 7 7 8 5 -1 1 8 14 12 10 10 10 9 9 10 10 10 11 10 7 5 6 8 10 11 12 12 11 10 10 8 8 9 9 10 10 10 10 11 12 13 13 14 13 12 10 7 5 5 4 6 8 10 11 14 16 17 nan
nan 7 7 9 9 8 9 9 9 10 11 11 10 9 9 10 10 10 11 11 11 10 10 9 8 8 6 6 5 5 5 3 1 3 9 13 12 11 11 10 9 9 9 9 9 9 8 7 8 9 10 12 12 12 11 9 8 8 9 10 11 11 11 10 10 10 10 9 10 11 11 10 9 8 4 1 4 7 9 10 10 11 12 13 14 nan
nan 8 8 9 9 9 9 10 10 10 10 10 9 9 9 10 10 10 11 11 10 10 11 12 11 9 5 4 4 4 5 5 5 7 11 13 13 12 10 9 9 9 9 8 8 8 8 9 10 12 14 13 10 7 5 6 8 9 9 10 11 12 12 11 11 11 8 7 7 9 9 9 9 9 4 5 10 13 13 13 13 11 11 12 11 nan
nan 9 9 10 10 10 10 10 9 9 9 9 9 9 10 10 10 10 11 11 10 10 10 11 11 11 9 6 6 5 7 8 9 10 13 14 14 12 9 7 9 10 9 7 7 8 9 9 10 13 14 11 8 5 5 7 8 9 9 9 11 13 13 12 10 9 7 6 7 8 9 11 12 11 9 12 15 15 14 12 9 9 12 14 12 nan
nan 9 9 10 11 11 10 9 8 8 9 9 9 9 11 12 13 13 13 12 12 12 12 10 10 11 13 12 11 10 11 13 13 13 16 15 14 12 9 6 7 9 9 9 9 9 9 9 9 8 7 8 8 10 11 9 8 7 8 12 14 14 12 10 9 9 9 9 9 10 13 13 12 11 11 11 11 11 11 10 9 11 15 15 11 nan
nan 9 9 9 10 11 9 8 8 9 9 9 10 12 13 14 15 16 15 14 14 15 15 12 11 11 12 13 14 15 14 14 13 13 16 14 12 11 9 6 6 7 9 9 9 9 9 8 7 7 6 6 6 7 8 7 6 4 8 13 12 9 8 9 10 11 11 10 9 10 11 10 9 9 9 9 9 10 11 10 10 10 13 15 13 nan
nan 9 9 9 9 10 10 10 10 11 10 11 12 12 12 12 13 14 14 14 14 14 14 14 13 13 13 14 15 15 15 12 12 12 11 10 9 8 8 7 6 7 8 8 8 9 9 8 9 9 10 8 7 8 8 6 5 6 11 12 8 4 6 10 12 13 11 9 9 8 7 8 9 10 10 10 12 11 10 10 9 8 11 13 12 nan
nan 9 9 9 9 10 10 9 10 11 13 13 11 10 9 9 10 10 11 12 12 12 11 12 12 13 14 15 15 16 16 15 14 12 10 11 10 9 7 6 6 6 7 8 9 9 9 9 10 10 10 10 10 10 9 8 8 10 12 9 8 9 14 17 16 11 9 9 9 8 9 12 11 10 10 12 12 11 10 9 7 8 12 14 12 nan
nan 10 10 10 10 9 8 10 11 12 12 12 11 10 9 8 8 8 10 10 9 9 11 12 12 12 13 13 14 15 16 16 15 13 13 13 12 11 9 7 5 5 7 8 10 11 11 11 11 11 11 11 10 8 7 9 10 12 11 9 9 13 16 14 11 8 8 9 10 11 11 11 11 10 10 11 12 12 11 9 11 12 14 14 12 nan
nan 10 10 11 11 11 11 11 11 11 10 10 9 10 9 8 8 10 12 11 8 10 12 12 12 12 11 11 12 13 15 16 16 16 18 15 11 8 9 9 8 7 6 6 7 9 11 13 13 12 13 12 10 9 9 9 10 11 10 10 10 10 7 4 4 6 10 12 11 11 10 10 10 11 11 12 12 12 12 13 13 12 13 14 13 nan
nan 10 10 10 11 12 11 10 10 11 11 10 10 9 9 9 10 11 11 10 10 12 11 10 11 12 10 10 11 12 13 14 15 17 19 15 11 13 15 12 10 10 9 7 6 6 8 10 12 13 13 11 10 10 9 10 10 11 10 10 11 11 8 5 6 8 10 11 11 10 10 10 10 11 11 12 12 11 11 11 11 11 13 13 13 nan
nan 10 10 10 10 8 9 10 10 12 11 11 11 10 10 10 10 10 10 11 11 12 11 11 10 8 7 8 10 10 11 12 13 14 14 15 16 17 16 13 9 8 9 9 8 7 7 7 8 9 10 11 13 14 13 12 12 11 10 11 12 13 12 11 11 11 10 10 10 11 11 11 11 10 10 11 11 11 11 11 11 11 12 12 12 nan
nan 11 11 11 10 10 10 10 11 11 12 11 11 10 10 10 10 10 11 11 11 10 11 12 10 8 7 8 9 8 8 9 11 11 11 12 13 14 14 13 12 10 9 10 10 11 10 9 7 7 7 10 12 15 16 14 12 10 10 11 11 11 11 11 11 11 11 11 11 11 11 11 10 10 10 11 11 12 12 12 12 12 12 11 11 nan
nan 11 11 11 11 11 12 12 12 12 12 12 10 9 8 7 8 13 14 11 10 8 10 11 10 9 11 11 9 7 6 8 10 11 11 12 12 13 13 14 14 14 14 13 14 15 16 14 11 9 7 8 8 9 11 12 12 11 11 10 10 9 10 11 11 11 11 11 11 11 10 10 9 9 10 11 11 11 11 11 12 13 13 12 12 nan
nan 10 10 11 11 11 11 11 11 10 10 10 10 10 8 6 8 15 16 11 9 9 9 8 9 10 11 10 9 7 9 11 11 11 11 11 11 12 12 12 12 13 15 18 19 19 20 21 20 16 10 6 4 4 7 10 11 12 11 11 10 10 11 11 11 11 11 11 12 11 10 10 10 10 10 10 10 10 10 11 13 14 14 13 12 nan
nan 10 10 10 10 10 10 10 9 9 8 9 11 11 11 11 13 14 13 10 9 10 9 8 8 9 9 9 8 9 11 12 12 11 10 11 10 10 11 11 11 12 14 16 16 16 17 21 25 27 21 11 5 3 6 9 11 11 11 11 11 11 11 11 11 10 9 10 11 12 11 10 11 11 11 10 10 10 11 12 13 14 14 13 12 nan
nan nan nan nan nan nan nan nan nan nan nan nan nan nan nan nan nan nan nan nan nan nan nan nan nan nan nan nan nan nan nan nan nan nan nan nan nan nan nan nan nan nan nan nan nan nan nan nan nan nan nan nan nan nan nan nan nan nan nan nan nan nan nan nan nan nan nan nan nan nan nan nan nan nan nan nan nan nan nan nan nan nan nan nan nan nan
CAPE
nan nan nan nan nan nan nan nan nan nan nan nan nan nan nan nan nan nan nan nan nan nan nan nan nan nan nan nan nan nan nan nan nan nan 0 0 0 0 0 0 0 0 1 1 1 2 3 4 4 6 8 10 14 14 15 15 15 15 13 11 11 12 14 19 19 25 33 36 43 43 50 60 73 73 86 100 128 128 144 150 150 161 177 187 187 200
nan nan nan nan nan nan nan nan nan nan nan nan nan nan nan nan nan nan nan nan nan nan nan nan nan nan nan nan nan nan nan nan nan nan nan nan nan nan nan nan nan 0 0 1 1 1 2 3 3 5 6 8 12 12 12 13 13 11 10 9 9 8 10 15 15 22 30 37 44 44 53 61 71 71 85 93 102 102 104 106 106 114 126 134 134 143
nan nan nan nan nan nan nan nan nan nan nan nan nan nan nan nan nan nan nan nan nan nan nan nan nan nan nan nan nan nan nan nan nan nan nan nan nan nan nan nan nan nan 0 1 1 1 2 3 3 5 6 8 9 9 10 10 10 9 7 6 6 7 9 13 13 19 29 37 45 45 52 59 71 71 78 82 78 78 78 78 78 88 92 101 101 104
nan nan nan nan nan nan nan nan nan nan nan nan nan nan nan nan nan nan nan nan nan nan nan nan nan nan nan nan nan nan nan nan nan nan nan nan nan nan nan nan nan nan 0 1 1 1 2 4 4 5 7 9 9 9 9 8 8 6 6 5 5 6 9 12 12 18 26 34 43 43 51 55 60 60 62 66 67 67 66 77 77 82 89 93 93 108
nan nan nan nan nan nan nan nan nan nan nan nan nan nan nan nan nan nan nan nan nan nan nan nan nan nan nan nan nan nan nan nan nan nan nan nan nan nan nan nan nan nan 0 1 1 2 3 4 4 6 7 8 8 8 8 7 7 5 5 5 5 8 11 16 16 21 25 33 37 37 44 47 52 52 51 54 57 57 63 74 74 85 94 100 100 116
nan nan nan nan nan nan nan nan nan nan nan nan nan nan nan nan nan nan nan nan nan nan nan nan nan nan nan nan nan nan nan nan nan nan nan nan nan nan nan nan nan 0 0 0 0 1 3 4 4 6 6 7 7 7 6 5 5 5 5 6 6 9 15 20 20 24 28 30 37 37 40 41 47 47 46 47 50 50 56 69 69 86 95 104 104 119
nan nan nan nan nan nan nan nan nan nan nan nan nan nan nan nan nan nan nan nan nan nan nan nan nan nan nan nan nan nan nan nan nan nan nan nan nan nan nan nan nan nan 0 0 0 1 2 3 3 4 5 6 6 6 5 4 4 4 5 7 7 11 17 23 23 26 27 31 35 35 37 38 41 41 42 45 48 48 56 68 68 83 94 104 104 110
nan nan nan nan nan nan nan nan nan nan nan nan nan nan nan nan nan nan nan nan nan nan nan nan nan nan nan nan nan nan nan nan nan nan nan nan nan nan nan nan nan nan nan nan nan nan 0 0 0 0 2 4 3 3 2 2 2 3 5 9 9 14 20 23 23 25 27 29 29 29 28 34 37 37 39 45 48 48 56 60 60 73 87 94 94 103
nan nan nan nan nan nan nan nan nan nan nan nan nan nan nan nan nan nan nan nan nan nan nan nan nan nan nan nan nan nan nan nan nan nan nan nan nan nan nan nan nan nan nan nan nan nan nan nan nan 0 1 1 1 1 1 1 1 2 5 10 10 15 20 23 23 26 28 28 28 28 31 34 38 38 39 44 47 47 51 57 57 67 79 87 87 95
nan nan nan nan nan nan nan nan nan nan nan nan nan nan nan nan nan nan nan nan nan nan nan nan nan nan nan nan nan nan nan nan nan nan nan nan nan nan nan nan nan nan nan nan nan nan nan nan nan nan 0 0 0 0 0 1 1 2 7 11 11 16 20 23 23 26 27 27 27 27 30 35 37 37 40 47 51 51 54 59 59 62 72 80 80 87
nan nan nan nan nan nan nan nan nan nan nan nan nan nan nan nan nan nan nan nan nan nan nan nan nan nan nan nan nan nan nan nan nan nan nan nan nan nan nan nan nan nan nan nan nan nan nan nan nan nan nan nan nan nan 0 1 1 4 8 12 12 16 19 22 22 24 27 27 28 28 31 33 38 38 42 46 54 54 59 62 62 63 66 71 71 81
nan nan nan nan nan nan nan nan nan nan nan nan nan nan nan nan nan nan nan nan nan nan nan nan nan nan nan nan nan nan nan nan nan nan nan nan nan nan nan nan nan nan nan nan nan nan nan nan nan nan nan nan nan nan 0 1 1 5 10 13 13 17 18 21 21 23 24 26 29 29 33 36 40 40 40 48 55 55 61 63 63 62 64 69 69 80
nan nan nan nan nan nan nan nan nan nan nan nan nan nan nan nan nan nan nan nan nan nan nan nan nan nan nan nan nan nan nan nan nan nan nan nan nan nan nan nan nan nan nan nan nan nan nan nan nan nan nan nan nan nan 0 3 3 7 11 14 14 16 18 19 19 21 22 25 30 30 35 38 40 40 43 47 57 57 60 63 63 65 67 71 71 82
nan nan nan nan nan nan nan nan nan nan nan nan nan nan nan nan nan nan nan nan nan nan nan nan nan nan nan nan nan nan nan nan nan nan nan nan nan nan nan nan nan nan nan nan nan nan nan nan nan nan nan nan nan nan 1 5 5 9 12 14 14 15 16 16 16 19 23 28 33 33 35 39 42 42 43 48 56 56 60 62 62 66 70 76 76 81
nan nan nan nan nan nan nan nan nan nan nan nan nan nan nan nan nan nan nan nan nan nan nan nan nan nan nan nan nan nan nan nan nan nan nan nan nan nan nan nan nan nan nan nan nan nan nan nan nan nan nan nan nan nan 0 4 4 10 11 14 14 16 16 16 16 19 23 30 35 35 37 39 45 45 48 52 56 56 61 63 63 70 71 74 74 88
nan nan nan nan nan nan nan nan nan nan nan nan nan nan nan nan nan nan nan nan nan nan nan nan nan nan nan nan nan nan nan nan nan nan nan nan nan nan nan nan nan nan nan nan nan nan nan nan nan nan nan nan 0 0 1 5 5 8 10 14 14 16 16 17 17 21 27 36 41 41 44 47 49 49 53 56 58 58 64 66 66 69 77 80 80 93
nan nan nan nan nan nan nan nan nan nan nan nan nan nan nan nan nan nan nan nan nan nan nan nan nan nan nan nan nan nan nan nan nan nan nan nan nan nan nan nan nan nan nan nan nan nan nan nan nan nan nan nan 0 0 0 2 2 5 10 13 13 15 16 18 18 23 31 39 42 42 47 50 54 54 57 59 64 64 66 68 68 74 82 92 92 102
nan nan nan nan nan nan nan nan nan nan nan nan nan nan nan nan nan nan nan nan nan nan nan nan nan nan nan nan nan nan nan nan nan nan nan nan nan nan nan nan nan nan nan nan nan nan nan nan nan nan nan nan nan nan 0 2 2 5 9 14 14 16 18 21 21 27 33 41 46 46 47 51 54 54 58 63 66 66 69 73 73 78 85 91 91 102
nan nan nan nan nan nan nan nan nan nan nan nan nan nan nan nan nan nan nan nan nan nan nan nan nan nan nan nan nan nan nan nan nan nan nan nan nan nan nan nan nan nan nan nan nan nan nan nan nan nan nan nan nan nan 0 2 2 5 10 13 13 17 18 23 23 30 38 41 45 45 49 54 56 56 61 65 67 67 70 74 74 79 83 90 90 106
nan nan nan nan nan nan nan nan nan nan nan nan nan nan nan nan nan nan nan nan nan nan nan nan nan nan nan nan nan nan nan nan nan nan nan nan nan nan nan nan nan nan nan nan nan nan nan nan nan nan nan nan nan nan 0 2 2 5 9 13 13 17 19 25 25 31 38 44 47 47 49 54 58 58 60 67 69 69 71 75 75 81 85 94 94 118
nan nan nan nan nan nan nan nan nan nan nan nan nan nan nan nan nan nan nan nan nan nan nan nan nan nan nan nan nan nan nan nan nan nan nan nan nan nan nan nan nan nan nan nan nan nan nan nan nan nan nan nan nan nan 0 1 1 4 8 13 13 17 21 25 25 31 37 41 47 47 48 54 58 58 63 66 69 69 73 79 79 83 88 101 101 121
nan nan nan nan nan nan nan nan nan nan nan nan nan nan nan nan nan nan nan nan nan nan nan nan nan nan nan nan nan nan nan nan nan nan nan nan nan nan nan nan nan nan nan nan nan nan nan nan nan nan nan nan nan nan nan 1 1 3 8 13 13 18 22 26 26 31 34 39 45 45 47 54 56 56 61 65 68 68 74 76 76 82 91 112 112 111
nan nan nan nan nan nan nan nan nan nan nan nan nan nan nan nan nan nan nan nan nan nan nan nan nan nan nan nan nan nan nan nan nan nan nan nan nan nan nan nan nan nan nan nan nan nan nan nan nan nan nan nan nan nan nan 1 1 3 7 12 12 18 22 26 26 28 31 37 41 41 46 52 55 55 57 63 66 66 70 74 74 80 96 102 102 94
nan nan nan nan nan nan nan nan nan nan nan nan nan nan nan nan nan nan nan nan nan nan nan nan nan nan nan nan nan nan nan nan nan nan nan nan nan nan nan nan nan nan nan nan nan nan nan nan nan nan nan nan nan nan nan 0 0 3 7 13 13 17 20 26 26 27 30 35 39 39 46 50 53 53 55 56 60 60 67 74 74 86 101 97 97 75
nan nan nan nan nan nan nan nan nan nan nan nan nan nan nan nan nan nan nan nan nan nan nan nan nan nan nan nan nan nan nan nan nan nan nan nan nan nan nan nan nan nan nan nan nan nan nan nan nan nan nan nan nan nan nan 0 0 3 7 12 12 16 19 24 24 26 29 33 40 40 46 50 52 52 52 54 57 57 65 71 71 89 95 84 84 60
nan nan nan nan nan nan nan 2 2 2 nan nan nan nan nan nan nan nan nan nan nan nan nan nan nan nan nan nan nan nan nan nan nan nan nan nan nan nan nan nan nan nan nan nan nan nan nan nan nan nan nan nan nan nan nan 1 1 3 6 10 10 13 17 22 22 25 28 33 37 37 44 48 50 50 51 52 58 58 64 74 74 91 90 67 67 49
0 2 8 9 9 7 5 4 3 3 13 nan nan nan nan nan nan nan nan nan nan nan nan nan nan nan nan nan nan nan nan nan nan nan nan nan nan nan nan nan nan nan nan nan nan nan nan nan nan nan nan nan nan nan nan 1 1 2 4 7 7 11 16 19 19 23 29 33 37 37 41 46 47 47 50 51 57 57 64 76 76 83 74 58 58 43
12 9 6 4 4 1 0 0 1 1 3 8 7 7 nan nan nan nan nan nan nan nan nan nan nan nan nan nan nan nan nan nan nan nan nan nan nan nan nan nan nan nan nan nan nan nan nan nan nan nan nan nan nan nan nan 0 0 1 2 5 5 8 13 17 17 23 28 32 37 37 38 42 44 44 45 48 54 54 63 75 75 76 63 33 33 nan
2 2 1 0 0 nan nan nan 0 0 1 4 4 4 nan nan nan nan nan nan nan nan nan nan nan nan nan nan nan nan nan nan nan nan nan nan nan nan nan nan nan nan nan nan nan nan nan nan nan nan nan nan nan nan nan nan nan nan 1 3 3 5 8 16 16 22 27 31 34 34 38 40 42 42 44 46 56 56 65 71 71 71 48 21 21 0
nan nan nan nan nan nan nan nan nan nan 2 4 4 4 nan nan nan nan nan nan nan nan nan nan nan nan nan nan nan nan nan nan nan nan nan nan nan nan nan nan nan nan nan nan nan nan nan nan nan nan nan nan nan nan nan nan nan nan nan 1 1 2 6 12 12 19 23 26 30 30 33 37 39 39 40 48 55 55 62 63 63 52 21 5 5 3
nan nan nan nan nan nan nan nan nan nan 0 5 4 4 nan nan nan nan nan nan nan nan nan nan nan nan nan nan nan nan nan nan nan nan nan nan nan nan nan nan nan nan nan nan nan nan nan nan nan nan nan nan nan nan nan nan nan nan nan nan nan nan 4 9 9 14 17 20 27 27 31 33 35 35 38 44 51 51 58 61 61 48 15 7 7 nan
nan nan nan nan nan nan nan nan nan nan nan nan nan nan nan nan nan nan nan nan nan nan nan nan nan nan nan nan nan nan nan nan nan nan nan nan nan nan nan nan nan nan nan nan nan nan nan nan nan nan nan nan nan nan nan nan nan nan nan nan nan nan nan 2 2 3 3 9 16 16 22 24 28 28 34 37 43 43 52 56 56 54 23 5 5 8
nan nan nan nan nan nan nan nan nan nan nan nan nan nan nan nan nan nan nan nan nan nan nan nan nan nan nan nan nan nan nan nan nan nan 4 nan nan nan nan nan nan nan nan nan nan nan nan nan nan nan nan nan nan nan nan nan nan nan nan nan nan nan nan nan nan nan nan 0 0 0 10 15 25 25 30 33 41 41 50 54 54 56 44 7 7 9
nan nan nan nan nan nan nan nan nan nan nan nan nan nan nan nan nan nan nan nan nan nan nan nan nan nan nan nan nan nan nan nan nan nan 4 0 nan nan nan nan nan nan nan nan nan nan nan nan nan nan nan nan nan nan nan nan nan nan nan nan nan nan nan nan nan nan nan nan nan nan nan nan 17 17 21 29 38 38 48 52 52 54 45 25 25 12
nan nan nan nan nan nan nan nan nan nan nan nan nan nan nan nan nan nan nan nan nan nan nan nan nan nan nan nan nan nan nan nan nan nan 5 2 0 0 nan nan nan nan nan nan nan nan nan nan nan nan nan nan nan nan nan nan nan nan nan nan nan nan nan nan nan nan nan nan nan nan nan nan nan nan 4 18 32 32 42 42 42 44 42 44 44 29
nan nan nan nan nan nan nan nan nan nan nan nan nan nan nan nan nan nan nan nan nan nan nan nan nan nan nan nan nan nan nan nan nan nan 3 nan nan nan nan nan nan nan nan nan nan nan nan nan nan nan 0 nan nan nan nan nan nan nan nan nan nan nan nan nan nan nan nan nan nan nan nan nan nan nan 0 18 25 25 26 26 26 28 33 38 38 35
nan nan nan nan nan nan nan nan nan nan nan nan nan nan nan nan nan nan nan nan nan nan nan nan nan nan nan nan nan nan nan nan nan nan nan nan nan nan nan nan nan nan nan nan nan nan nan nan nan nan nan nan nan nan nan nan nan nan nan nan nan nan nan nan nan nan nan nan nan nan nan nan nan nan 1 13 7 7 8 11 11 12 20 27 27 33
nan nan nan nan nan nan nan nan nan nan nan nan nan nan nan nan nan nan nan nan nan nan nan nan nan nan nan 0 nan nan nan nan nan nan nan nan nan nan nan nan nan nan nan nan nan nan nan nan nan nan nan nan nan nan nan nan nan nan nan nan nan nan nan nan nan nan nan nan 0 0 1 nan nan nan nan nan nan nan nan nan nan 0 5 5 5 20
nan nan nan nan nan nan nan nan nan nan nan nan nan nan nan nan nan nan nan nan nan nan nan nan nan nan nan nan nan nan nan nan nan nan nan nan nan nan nan nan nan nan nan nan nan nan nan nan nan nan nan nan nan nan nan nan nan nan nan nan nan nan nan nan nan nan nan nan 0 0 nan nan nan nan nan nan nan nan nan nan nan nan nan nan nan nan
nan nan nan nan nan nan nan nan nan nan nan nan nan nan nan nan nan nan nan nan nan nan nan nan nan nan nan nan nan nan nan nan nan nan nan nan nan nan nan nan nan nan nan nan nan nan nan nan nan nan nan nan nan nan nan nan nan nan 1 nan nan nan nan nan nan nan nan nan nan nan nan nan nan nan nan nan nan nan nan nan nan nan nan nan nan nan
nan nan nan nan nan nan nan nan nan nan nan nan nan nan nan nan nan nan nan nan nan nan nan nan nan nan nan nan nan nan nan nan nan nan nan nan nan nan nan nan nan nan nan nan nan nan nan nan nan nan nan nan nan nan nan nan nan 1 2 nan nan nan nan nan nan nan nan nan nan nan nan nan nan nan nan nan nan nan nan nan nan nan nan nan nan nan
nan nan nan nan nan nan nan nan nan nan nan nan nan nan nan nan nan nan nan nan nan nan nan nan nan nan nan nan nan nan nan nan nan nan nan nan nan nan nan nan nan nan nan nan nan nan nan nan nan nan nan nan nan nan nan nan nan 0 0 nan nan nan nan nan nan nan nan nan nan nan 0 nan nan nan nan nan nan nan nan nan nan nan 1 nan nan nan
nan nan nan nan nan nan nan nan nan nan nan nan nan nan nan nan nan nan nan nan nan nan nan nan nan nan nan nan nan nan nan nan nan nan nan nan nan nan nan nan nan nan nan nan nan nan nan nan nan nan nan nan nan nan nan nan nan nan nan nan nan nan nan nan nan nan nan nan nan nan nan nan nan nan nan nan nan nan nan nan nan 2 1 nan nan nan
nan nan nan nan nan nan nan nan nan nan nan nan nan nan nan nan nan nan nan nan nan nan nan nan nan nan nan nan nan nan nan nan nan nan nan nan nan nan nan nan nan nan nan nan nan nan nan nan nan nan nan nan nan nan nan nan nan nan nan nan nan nan nan nan nan nan nan nan nan nan nan nan nan nan nan nan nan nan nan nan nan nan nan nan nan nan
nan nan nan nan nan nan nan nan nan nan nan nan nan nan nan nan nan nan nan nan nan nan nan nan nan nan nan nan nan nan nan nan nan nan nan nan 0 0 nan nan nan nan nan nan nan nan nan nan nan nan nan nan nan nan nan nan nan nan nan nan nan nan nan nan nan nan nan nan nan nan nan nan nan nan nan nan nan nan nan nan nan nan nan nan nan nan
nan nan nan nan nan nan nan nan nan nan nan nan nan nan nan nan nan nan nan nan nan nan nan nan nan nan nan nan nan nan nan nan nan nan nan nan nan nan nan nan nan nan nan nan nan nan nan nan nan nan nan nan nan nan nan nan nan nan nan nan nan nan nan nan nan nan nan nan nan nan nan nan nan nan nan nan nan nan nan nan nan nan nan nan nan nan
nan nan nan nan nan nan nan nan nan nan nan nan nan nan nan nan nan nan nan nan nan nan nan nan nan nan nan nan nan nan nan nan nan nan nan nan nan nan nan nan nan nan nan nan nan nan nan nan nan nan nan nan nan nan nan nan nan nan nan nan nan nan nan nan nan nan nan nan nan nan nan nan nan nan nan nan nan nan nan nan nan nan nan nan nan nan
nan nan nan nan nan nan nan nan nan nan nan nan nan nan nan nan nan nan nan nan nan nan nan nan nan nan nan nan nan nan nan nan nan nan nan nan nan nan nan nan nan nan nan nan nan nan nan nan nan nan nan nan nan nan nan nan nan nan nan nan nan nan nan nan nan nan nan nan nan nan nan nan nan nan nan nan nan nan nan nan nan nan nan nan nan nan
nan nan nan nan nan nan nan nan nan nan nan nan nan nan nan nan 0 0 nan nan nan nan nan nan nan nan nan nan nan nan nan nan nan nan nan nan nan nan nan nan nan nan nan nan nan nan nan nan nan nan nan nan nan nan nan nan nan nan nan nan nan nan nan nan nan nan nan nan nan nan nan nan nan nan nan nan nan nan nan nan nan nan nan nan nan nan
nan nan nan nan nan nan nan nan nan nan nan nan nan nan nan nan nan nan nan nan nan nan nan nan nan nan nan nan nan nan nan nan nan nan nan nan nan nan nan nan nan nan nan nan nan nan nan nan nan nan nan nan nan nan nan nan nan nan nan nan nan nan nan nan nan nan nan nan nan nan nan nan nan nan nan nan nan nan nan nan nan nan nan nan nan nan
nan nan nan nan nan nan nan nan nan nan nan nan nan nan nan nan nan nan nan nan nan nan nan nan nan nan nan nan nan nan nan nan nan nan nan nan nan nan nan nan nan nan nan nan nan nan nan nan nan nan nan nan nan nan nan nan nan nan nan nan nan nan nan nan nan nan nan nan nan nan nan nan nan nan nan nan nan nan nan nan nan nan nan nan nan nan